Voltar ao catálogo

COSMOS 2251 DEB

AtivoLEO
NORAD 33816·DEBRIS·🇷🇺 Russia

Lançado Jun 16, 1993 de Plesetsk Cosmodrome

Loading…

Próximas Passagens (próximas 24 horas)

TLE

AtualizadoSource: Space-Track

Época: Sep 14, 2026, 05:23 UTC

1 33816U 93036BH  26257.22476146  .00000293  00000-0  22584-3 0  9994
2 33816  73.8975 358.2853 0265918 319.2168  38.9313 13.82141177884795

Acompanhe COSMOS 2251 DEB em tempo real com AllMySat

Download on the App Store